Weather Roundup
Issued by NWS Chicago, IL

Home | Current Version | Previous Version | Text Only | Print | Product List | Glossary On
Versions: 1 2 3 4 5 6 7 8 9 10 11 12 13 14 15 16 17 18 19 20 21 22 23 24 25 26 27 28 29 30 31 32 33 34 35 36 37 38 39 40 41 42 43 44 45 46 47 48 49 50
000
NZUS59 KLOT 280709
HRRLOT

CHICAGO AREA WEATHER ROUNDUP
NATIONAL WEATHER SERVICE CHICAGO/ROMEOVILLE IL
200 AM CDT FRI JUL 28 2017

NOTE: "FAIR" INDICATES FEW OR NO CLOUDS BELOW 12,000 FEET WITH NO
SIGNIFICANT WEATHER AND/OR OBSTRUCTIONS TO VISIBILITY.

* THESE STATIONS ARE NOT UNDER NWS QUALITY CONTROL. THEY ALSO MAY NOT
  REPORT WEATHER SUCH AS PRECIPITATION OR FOG.

ILZ005-006-012>014-019>023-280800-
NORTHEAST ILLINOIS

CITY           SKY/WX    TMP DP  RH WIND       PRES   REMARKS
OHARE          PTCLDY    70  61  73 N12       29.94S
MIDWAY         MOCLDY    72  65  78 N12       29.93S
AURORA         CLEAR     65  60  84 N8        29.95F
LANSING*       CLOUDY    71  66  84 N3        29.92S
JOLIET*        PTCLDY    68  62  80 N6        29.93S
WAUKEGAN       PTCLDY    68  62  81 N9G17     29.96R
DUPAGE AIRPORT CLEAR     63  60  90 N9        29.95S
WHEELING       CLEAR     68  64  87 N9        29.96S
MORRIS*        CLEAR     62  58  86 CALM      29.92F
LEWIS AIRPORT* PTCLDY    66  60  79 N8        29.93S
$$

WIZ051-052-058>065-066-070>072-280800-
SOUTHEAST WISCONSIN

CITY           SKY/WX    TMP DP  RH WIND       PRES   REMARKS
MILWAUKEE      NOT AVBL
KENOSHA*       PTCLDY    67  61  81 N8        29.98S
RACINE*        MOCLDY    68  64  87 N14       30.00S
WAUKESHA       CLEAR     61  54  77 N5        30.02R
WEST BEND      CLEAR     61  57  88 N5        30.02S
$$

INZ001>003-010>013-019-020-280800-
NORTHWEST INDIANA

CITY           SKY/WX    TMP DP  RH WIND       PRES   REMARKS
GARY*          PTCLDY    74  68  81 NE7       29.92S
MICHIGAN CITY* NOT AVBL
RENSSELAER*    NOT AVBL
VALPARAISO     MOCLDY    72  68  87 CALM      29.91S
$$

LMZ740>746-280800-
SOUTHERN LAKE MICHIGAN

STATION/POSITION TIME  SKY/WX   TEMP WIND        PRES    VSBY
                                AIR  DIR/SP/G
                 (UTC)          (F)  (DEG/KT/KT) (MB)    (MI)
HARRISON CRIB    0640            73   10/ 10/ 11   N/A
BURNHAM HARBOR   0700            71                N/A
CALUMET HARBOR   0648            73  350/  6/  9 1012.9F
BURNS HARBOR     0613            74   50/ 14/ 15 1013.2F
MICHIGAN CITY    0640            73   40/ 13/ 14   N/A
$$

ABBREVIATIONS USED IN REMARKS
   TC - TEMPERATURE IN CELSIUS
  WCI - WIND CHILL INDEX
   HX - HEAT INDEX
  VSB - VISIBILITY
$$



USA.gov is the U.S. government's official web portal to all federal, state and local government web resources and services.